Time,TemperatureF,DewpointF,PressureIn,WindDirection,WindDirectionDegrees,WindSpeedMPH,WindSpeedGustMPH,Humidity,HourlyPrecipIn,Conditions,Clouds,dailyrainin,SolarRadiationWatts/m^2,SoftwareType,DateUTC
2013-03-04 00:00:00,24.6,22.5,29.93,West,275,2.0,10.0,91,0.01,,,0.01,0.0,meteohub,2013-03-04 06:00:00,
2013-03-04 00:05:00,24.6,22.5,29.93,WSW,250,3.0,6.0,91,0.01,,,0.00,0.0,meteohub,2013-03-04 06:05:00,
2013-03-04 00:11:00,24.6,22.5,29.92,SE,133,5.0,7.0,91,0.01,,,0.00,0.0,meteohub,2013-03-04 06:11:00,
2013-03-04 00:16:00,24.6,22.5,29.92,SE,130,1.0,7.0,91,0.01,,,0.00,0.0,meteohub,2013-03-04 06:16:00,
2013-03-04 00:21:00,24.6,22.5,29.92,South,178,5.0,6.0,91,0.02,,,0.01,0.0,meteohub,2013-03-04 06:21:00,
2013-03-04 00:26:00,24.6,22.6,29.92,South,190,0.0,6.0,92,0.02,,,0.01,0.0,meteohub,2013-03-04 06:26:00,
2013-03-04 00:31:00,24.4,22.5,29.92,WSW,255,2.0,8.0,92,0.02,,,0.01,0.0,meteohub,2013-03-04 06:31:00,
2013-03-04 00:36:00,24.6,22.6,29.91,ESE,103,3.0,8.0,92,0.02,,,0.01,0.0,meteohub,2013-03-04 06:36:00,
2013-03-04 00:41:00,24.4,22.5,29.91,South,178,1.0,8.0,92,0.02,,,0.01,0.0,meteohub,2013-03-04 06:41:00,
2013-03-04 00:46:00,24.4,22.5,29.91,WSW,257,0.0,7.0,92,0.02,,,0.01,0.0,meteohub,2013-03-04 06:46:00,
2013-03-04 00:51:00,24.4,22.5,29.91,WSW,252,0.0,7.0,92,0.02,,,0.02,0.0,meteohub,2013-03-04 06:51:00,
2013-03-04 00:56:00,24.4,22.5,29.91,South,184,2.0,7.0,92,0.02,,,0.02,0.0,meteohub,2013-03-04 06:56:00,
2013-03-04 01:01:00,24.4,22.5,29.91,WSW,255,0.0,8.0,92,0.02,,,0.02,0.0,meteohub,2013-03-04 07:01:00,
2013-03-04 01:06:00,24.4,22.5,29.91,South,190,2.0,8.0,92,0.02,,,0.02,0.0,meteohub,2013-03-04 07:06:00,
2013-03-04 01:11:00,24.4,22.5,29.91,SSE,152,2.0,6.0,92,0.03,,,0.03,0.0,meteohub,2013-03-04 07:11:00,
2013-03-04 01:16:00,24.4,22.5,29.91,West,266,1.0,7.0,92,0.03,,,0.03,0.0,meteohub,2013-03-04 07:16:00,
2013-03-04 01:21:00,24.4,22.5,29.91,SW,234,2.0,7.0,92,0.02,,,0.03,0.0,meteohub,2013-03-04 07:21:00,
2013-03-04 01:26:00,24.4,22.5,29.91,ENE,63,5.0,6.0,92,0.02,,,0.03,0.0,meteohub,2013-03-04 07:26:00,
2013-03-04 01:31:00,24.4,22.5,29.91,ENE,71,4.0,6.0,92,0.02,,,0.03,0.0,meteohub,2013-03-04 07:31:00,
2013-03-04 01:36:00,24.4,22.5,29.91,South,189,0.0,6.0,92,0.03,,,0.04,0.0,meteohub,2013-03-04 07:36:00,
2013-03-04 01:41:00,24.4,22.5,29.91,WSW,246,2.0,5.0,92,0.03,,,0.04,0.0,meteohub,2013-03-04 07:41:00,
2013-03-04 01:46:00,24.4,22.5,29.91,WSW,242,0.0,4.0,92,0.02,,,0.04,0.0,meteohub,2013-03-04 07:46:00,
2013-03-04 01:51:00,24.4,22.5,29.91,West,281,3.0,5.0,92,0.03,,,0.05,0.0,meteohub,2013-03-04 07:51:00,
2013-03-04 01:56:00,24.4,22.5,29.91,SSW,196,0.0,5.0,92,0.03,,,0.05,0.0,meteohub,2013-03-04 07:56:00,
2013-03-04 02:01:00,24.4,22.5,29.91,SSW,207,0.0,7.0,92,0.04,,,0.06,0.0,meteohub,2013-03-04 08:01:00,
2013-03-04 02:06:00,24.3,22.3,29.90,WSW,238,3.0,7.0,92,0.04,,,0.06,0.0,meteohub,2013-03-04 08:06:00,
2013-03-04 02:11:00,24.3,22.3,29.90,WNW,282,3.0,7.0,92,0.04,,,0.07,0.0,meteohub,2013-03-04 08:11:00,
2013-03-04 02:16:00,24.3,22.3,29.90,West,278,2.0,5.0,92,0.04,,,0.07,0.0,meteohub,2013-03-04 08:16:00,
2013-03-04 02:21:00,24.3,22.3,29.90,ENE,71,1.0,6.0,92,0.04,,,0.07,0.0,meteohub,2013-03-04 08:21:00,
2013-03-04 02:26:00,24.3,22.3,29.90,East,86,0.0,6.0,92,0.04,,,0.07,0.0,meteohub,2013-03-04 08:26:00,
2013-03-04 02:31:00,24.4,22.5,29.90,South,178,1.0,7.0,92,0.04,,,0.07,0.0,meteohub,2013-03-04 08:31:00,
2013-03-04 02:36:00,24.4,22.5,29.90,SW,235,2.0,7.0,92,0.03,,,0.07,0.0,meteohub,2013-03-04 08:36:00,
2013-03-04 02:41:00,24.4,22.5,29.90,ESE,107,0.0,6.0,92,0.03,,,0.07,0.0,meteohub,2013-03-04 08:41:00,
2013-03-04 02:46:00,24.4,22.5,29.90,WSW,238,0.0,4.0,92,0.02,,,0.07,0.0,meteohub,2013-03-04 08:46:00,
2013-03-04 02:51:00,24.4,22.5,29.89,SSE,163,1.0,8.0,92,0.02,,,0.07,0.0,meteohub,2013-03-04 08:51:00,
2013-03-04 02:56:00,24.4,22.5,29.89,South,181,1.0,8.0,92,0.02,,,0.07,0.0,meteohub,2013-03-04 08:56:00,
2013-03-04 03:01:00,24.4,22.5,29.89,NNW,348,2.0,8.0,92,0.02,,,0.08,0.0,meteohub,2013-03-04 09:01:00,
2013-03-04 03:06:00,24.4,22.5,29.89,West,267,2.0,8.0,92,0.02,,,0.08,0.0,meteohub,2013-03-04 09:06:00,
2013-03-04 03:11:00,24.4,22.5,29.89,SSW,196,3.0,6.0,92,0.01,,,0.08,0.0,meteohub,2013-03-04 09:11:00,
2013-03-04 03:16:00,24.4,22.5,29.89,SW,232,2.0,5.0,92,0.02,,,0.09,0.0,meteohub,2013-03-04 09:16:00,
2013-03-04 03:21:00,24.6,22.5,29.89,SW,217,0.0,6.0,91,0.02,,,0.09,0.0,meteohub,2013-03-04 09:21:00,
2013-03-04 03:26:00,24.6,22.6,29.89,NE,34,0.0,7.0,92,0.02,,,0.09,0.0,meteohub,2013-03-04 09:26:00,
2013-03-04 03:31:00,24.6,22.5,29.89,SW,221,4.0,7.0,91,0.02,,,0.09,0.0,meteohub,2013-03-04 09:31:00,
2013-03-04 03:36:00,24.6,22.5,29.88,SW,216,2.0,7.0,91,0.02,,,0.09,0.0,meteohub,2013-03-04 09:36:00,
2013-03-04 03:41:00,24.4,22.3,29.88,ENE,72,1.0,6.0,91,0.02,,,0.09,0.0,meteohub,2013-03-04 09:41:00,
2013-03-04 03:46:00,24.4,22.3,29.88,SSE,167,1.0,7.0,91,0.02,,,0.09,0.0,meteohub,2013-03-04 09:46:00,
2013-03-04 03:51:00,24.4,22.3,29.88,South,170,5.0,8.0,91,0.02,,,0.09,0.0,meteohub,2013-03-04 09:51:00,
2013-03-04 03:56:00,24.4,22.3,29.88,NW,309,3.0,8.0,91,0.01,,,0.09,0.0,meteohub,2013-03-04 09:56:00,
2013-03-04 04:01:00,24.4,22.3,29.88,WSW,243,0.0,8.0,91,0.01,,,0.09,0.0,meteohub,2013-03-04 10:01:00,
2013-03-04 04:07:00,24.4,22.3,29.88,ENE,59,2.0,7.0,91,0.01,,,0.09,0.0,meteohub,2013-03-04 10:07:00,
2013-03-04 04:12:00,24.4,22.3,29.88,NE,50,5.0,7.0,91,0.01,,,0.09,0.0,meteohub,2013-03-04 10:12:00,
2013-03-04 04:17:00,24.4,22.3,29.88,ESE,117,0.0,9.0,91,0.00,,,0.09,0.0,meteohub,2013-03-04 10:17:00,
2013-03-04 04:22:00,24.4,22.3,29.89,ENE,72,1.0,9.0,91,0.00,,,0.09,0.0,meteohub,2013-03-04 10:22:00,
2013-03-04 04:27:00,24.4,22.3,29.89,SE,138,2.0,9.0,91,0.00,,,0.09,0.0,meteohub,2013-03-04 10:27:00,
2013-03-04 04:32:00,24.4,21.9,29.89,SW,232,1.0,9.0,90,0.00,,,0.09,0.0,meteohub,2013-03-04 10:32:00,
2013-03-04 04:37:00,24.4,21.9,29.89,NW,305,2.0,6.0,90,0.00,,,0.09,0.0,meteohub,2013-03-04 10:37:00,
2013-03-04 04:42:00,24.4,21.9,29.89,North,355,2.0,8.0,90,0.00,,,0.09,0.0,meteohub,2013-03-04 10:42:00,
2013-03-04 04:47:00,24.4,21.9,29.89,South,186,2.0,8.0,90,0.00,,,0.09,0.0,meteohub,2013-03-04 10:47:00,
2013-03-04 04:52:00,24.4,21.9,29.89,WSW,257,2.0,7.0,90,0.00,,,0.09,0.0,meteohub,2013-03-04 10:52:00,
2013-03-04 04:57:00,24.4,21.9,29.89,NE,53,4.0,7.0,90,0.00,,,0.09,0.0,meteohub,2013-03-04 10:57:00,
2013-03-04 05:02:00,24.4,21.9,29.89,SW,236,1.0,7.0,90,0.00,,,0.09,0.0,meteohub,2013-03-04 11:02:00,
2013-03-04 05:07:00,24.4,21.9,29.90,SW,217,1.0,6.0,90,0.00,,,0.09,0.0,meteohub,2013-03-04 11:07:00,
2013-03-04 05:12:00,24.4,21.9,29.90,WSW,253,2.0,6.0,90,0.00,,,0.09,0.0,meteohub,2013-03-04 11:12:00,
2013-03-04 05:17:00,24.4,21.9,29.90,NNE,18,0.0,7.0,90,0.00,,,0.09,0.0,meteohub,2013-03-04 11:17:00,
2013-03-04 05:22:00,24.4,21.9,29.91,South,182,4.0,7.0,90,0.00,,,0.09,0.0,meteohub,2013-03-04 11:22:00,
2013-03-04 05:27:00,24.4,21.9,29.91,WNW,302,4.0,7.0,90,0.00,,,0.09,0.0,meteohub,2013-03-04 11:27:00,
2013-03-04 05:32:00,24.4,21.9,29.91,North,355,1.0,7.0,90,0.00,,,0.09,0.0,meteohub,2013-03-04 11:32:00,
2013-03-04 05:37:00,24.4,21.9,29.91,SE,144,0.0,9.0,90,0.00,,,0.09,0.0,meteohub,2013-03-04 11:37:00,
2013-03-04 05:42:00,24.4,21.9,29.90,NNW,331,0.0,9.0,90,0.00,,,0.09,0.0,meteohub,2013-03-04 11:42:00,
2013-03-04 05:47:00,24.4,21.9,29.91,SW,222,0.0,9.0,90,0.00,,,0.09,0.0,meteohub,2013-03-04 11:47:00,
2013-03-04 05:52:00,24.4,21.9,29.90,South,190,1.0,7.0,90,0.00,,,0.09,0.0,meteohub,2013-03-04 11:52:00,
2013-03-04 05:57:00,24.4,21.9,29.90,North,355,4.0,7.0,90,0.00,,,0.09,0.0,meteohub,2013-03-04 11:57:00,
2013-03-04 06:02:00,24.4,22.3,29.90,WSW,250,4.0,7.0,91,0.00,,,0.09,0.0,meteohub,2013-03-04 12:02:00,
2013-03-04 06:07:00,24.4,22.3,29.90,SSW,210,2.0,7.0,91,0.00,,,0.09,0.0,meteohub,2013-03-04 12:07:00,
2013-03-04 06:12:00,24.3,22.1,29.90,SW,228,0.0,7.0,91,0.00,,,0.09,0.0,meteohub,2013-03-04 12:12:00,
2013-03-04 06:17:00,24.3,22.1,29.91,NE,50,1.0,7.0,91,0.00,,,0.09,0.0,meteohub,2013-03-04 12:17:00,
2013-03-04 06:22:00,24.3,22.1,29.91,South,170,0.0,7.0,91,0.00,,,0.09,0.0,meteohub,2013-03-04 12:22:00,
2013-03-04 06:27:00,24.3,22.1,29.91,SSW,192,0.0,7.0,91,0.00,,,0.09,0.0,meteohub,2013-03-04 12:27:00,
2013-03-04 06:32:00,24.4,22.3,29.91,West,273,2.0,7.0,91,0.00,,,0.09,0.0,meteohub,2013-03-04 12:32:00,
2013-03-04 06:37:00,24.3,22.1,29.91,SSE,150,0.0,7.0,91,0.00,,,0.09,0.0,meteohub,2013-03-04 12:37:00,
2013-03-04 06:42:00,24.3,22.1,29.91,WSW,246,2.0,7.0,91,0.00,,,0.09,0.0,meteohub,2013-03-04 12:42:00,
2013-03-04 06:47:00,24.3,22.1,29.91,SW,228,1.0,7.0,91,0.00,,,0.09,0.0,meteohub,2013-03-04 12:47:00,
2013-03-04 06:52:00,24.4,22.3,29.91,SSE,160,1.0,6.0,91,0.00,,,0.09,0.0,meteohub,2013-03-04 12:52:00,
2013-03-04 06:57:00,24.4,21.9,29.91,ENE,65,2.0,8.0,90,0.00,,,0.09,0.0,meteohub,2013-03-04 12:57:00,
2013-03-04 07:02:00,24.4,21.9,29.90,SE,142,0.0,8.0,90,0.00,,,0.09,0.0,meteohub,2013-03-04 13:02:00,
2013-03-04 07:07:00,24.4,21.9,29.91,South,181,1.0,6.0,90,0.00,,,0.09,0.0,meteohub,2013-03-04 13:07:00,
2013-03-04 07:12:00,24.4,21.9,29.91,South,190,0.0,6.0,90,0.00,,,0.09,0.0,meteohub,2013-03-04 13:12:00,
2013-03-04 07:17:00,24.4,21.9,29.91,SE,144,0.0,6.0,90,0.00,,,0.09,5.0,meteohub,2013-03-04 13:17:00,
2013-03-04 07:22:00,24.4,21.9,29.91,South,183,1.0,7.0,90,0.00,,,0.09,5.0,meteohub,2013-03-04 13:22:00,
2013-03-04 07:27:00,24.4,21.9,29.91,NNE,22,0.0,7.0,90,0.00,,,0.09,7.0,meteohub,2013-03-04 13:27:00,
2013-03-04 07:32:00,24.4,21.9,29.91,West,259,1.0,7.0,90,0.00,,,0.09,9.0,meteohub,2013-03-04 13:32:00,
2013-03-04 07:37:00,24.6,22.1,29.91,ESE,111,1.0,6.0,90,0.00,,,0.09,9.0,meteohub,2013-03-04 13:37:00,
2013-03-04 07:42:00,24.6,22.1,29.91,WSW,254,0.0,6.0,90,0.00,,,0.09,9.0,meteohub,2013-03-04 13:42:00,
2013-03-04 07:47:00,24.6,22.1,29.92,SW,223,3.0,4.0,90,0.00,,,0.09,11.0,meteohub,2013-03-04 13:47:00,
2013-03-04 07:52:00,24.6,22.1,29.92,NE,43,5.0,5.0,90,0.00,,,0.09,11.0,meteohub,2013-03-04 13:52:00,
2013-03-04 07:57:00,24.6,22.1,29.92,SSE,147,0.0,6.0,90,0.00,,,0.09,12.0,meteohub,2013-03-04 13:57:00,
2013-03-04 08:02:00,24.6,22.1,29.92,SE,144,3.0,6.0,90,0.00,,,0.09,16.0,meteohub,2013-03-04 14:02:00,
2013-03-04 08:07:00,24.6,22.1,29.91,NNE,21,0.0,6.0,90,0.00,,,0.09,21.0,meteohub,2013-03-04 14:07:00,
2013-03-04 08:12:00,24.8,22.3,29.92,North,351,0.0,5.0,90,0.00,,,0.09,21.0,meteohub,2013-03-04 14:12:00,
2013-03-04 08:17:00,24.8,22.3,29.92,SW,214,1.0,5.0,90,0.00,,,0.09,21.0,meteohub,2013-03-04 14:17:00,
2013-03-04 08:22:00,24.8,22.3,29.92,SE,136,2.0,5.0,90,0.00,,,0.09,21.0,meteohub,2013-03-04 14:22:00,
2013-03-04 08:27:00,24.8,22.3,29.92,NE,42,1.0,6.0,90,0.00,,,0.09,23.0,meteohub,2013-03-04 14:27:00,
2013-03-04 08:32:00,24.6,22.1,29.92,WNW,298,3.0,6.0,90,0.00,,,0.09,26.0,meteohub,2013-03-04 14:32:00,
2013-03-04 08:37:00,24.8,22.3,29.92,NW,319,1.0,6.0,90,0.00,,,0.09,30.0,meteohub,2013-03-04 14:37:00,
2013-03-04 08:42:00,25.0,22.5,29.92,SSE,166,1.0,7.0,90,0.00,,,0.09,33.0,meteohub,2013-03-04 14:42:00,
2013-03-04 08:47:00,25.0,22.5,29.92,SW,225,2.0,7.0,90,0.00,,,0.09,35.0,meteohub,2013-03-04 14:47:00,
2013-03-04 08:52:00,25.2,22.5,29.91,SSE,150,1.0,7.0,89,0.00,,,0.09,37.0,meteohub,2013-03-04 14:52:00,
2013-03-04 08:57:00,25.0,22.3,29.91,NE,37,0.0,7.0,89,0.00,,,0.09,30.0,meteohub,2013-03-04 14:57:00,
2013-03-04 09:02:00,25.2,22.6,29.92,South,178,1.0,7.0,90,0.00,,,0.09,33.0,meteohub,2013-03-04 15:02:00,
2013-03-04 09:07:00,25.2,22.6,29.91,SW,227,1.0,7.0,90,0.00,,,0.09,39.0,meteohub,2013-03-04 15:07:00,
2013-03-04 09:12:00,25.2,22.5,29.92,NNE,28,0.0,7.0,89,0.00,,,0.09,42.0,meteohub,2013-03-04 15:12:00,
2013-03-04 09:17:00,25.3,22.6,29.92,SSE,167,1.0,7.0,89,0.00,,,0.09,42.0,meteohub,2013-03-04 15:17:00,
2013-03-04 09:22:00,25.3,22.6,29.92,SW,232,1.0,6.0,89,0.00,,,0.09,46.0,meteohub,2013-03-04 15:22:00,
2013-03-04 09:27:00,25.3,22.6,29.92,NW,313,1.0,6.0,89,0.00,,,0.09,47.0,meteohub,2013-03-04 15:27:00,
2013-03-04 09:32:00,25.3,22.6,29.92,SSW,193,2.0,6.0,89,0.00,,,0.09,51.0,meteohub,2013-03-04 15:32:00,
2013-03-04 09:37:00,25.5,23.0,29.92,ENE,63,1.0,6.0,90,0.00,,,0.09,54.0,meteohub,2013-03-04 15:37:00,
2013-03-04 09:42:00,25.3,22.8,29.92,WNW,282,0.0,6.0,90,0.00,,,0.09,53.0,meteohub,2013-03-04 15:42:00,
2013-03-04 09:47:00,25.5,23.0,29.92,NE,36,0.0,6.0,90,0.00,,,0.09,51.0,meteohub,2013-03-04 15:47:00,
2013-03-04 09:52:00,25.5,23.0,29.92,SSE,159,1.0,6.0,90,0.00,,,0.09,60.0,meteohub,2013-03-04 15:52:00,
2013-03-04 09:57:00,25.5,23.0,29.91,SSW,196,0.0,5.0,90,0.00,,,0.09,63.0,meteohub,2013-03-04 15:57:00,
2013-03-04 10:02:00,25.5,23.0,29.92,NNW,347,2.0,7.0,90,0.00,,,0.09,65.0,meteohub,2013-03-04 16:02:00,
2013-03-04 10:07:00,25.5,23.0,29.92,South,189,2.0,7.0,90,0.00,,,0.09,58.0,meteohub,2013-03-04 16:07:00,
2013-03-04 10:12:00,25.7,23.2,29.92,ENE,73,3.0,7.0,90,0.00,,,0.09,65.0,meteohub,2013-03-04 16:12:00,
2013-03-04 10:17:00,25.7,23.4,29.92,SSW,212,2.0,7.0,91,0.00,,,0.09,65.0,meteohub,2013-03-04 16:17:00,
2013-03-04 10:22:00,25.9,23.5,29.92,West,259,0.0,6.0,91,0.00,,,0.09,70.0,meteohub,2013-03-04 16:22:00,
2013-03-04 10:27:00,25.9,23.4,29.92,SSE,157,3.0,6.0,90,0.00,,,0.09,77.0,meteohub,2013-03-04 16:27:00,
2013-03-04 10:31:00,25.9,23.4,29.92,East,88,0.0,6.0,90,0.00,,,0.09,76.0,meteohub,2013-03-04 16:31:00,
2013-03-04 10:37:00,26.1,23.5,29.92,WSW,242,0.0,6.0,90,0.00,,,0.09,79.0,meteohub,2013-03-04 16:37:00,
2013-03-04 10:42:00,26.2,23.7,29.92,SW,214,2.0,6.0,90,0.00,,,0.09,83.0,meteohub,2013-03-04 16:42:00,
2013-03-04 10:47:00,26.2,23.7,29.92,WNW,286,0.0,5.0,90,0.00,,,0.09,72.0,meteohub,2013-03-04 16:47:00,
2013-03-04 10:52:00,26.2,23.7,29.92,SW,215,0.0,4.0,90,0.00,,,0.09,77.0,meteohub,2013-03-04 16:52:00,
2013-03-04 10:57:00,26.2,23.7,29.93,South,171,1.0,8.0,90,0.00,,,0.09,76.0,meteohub,2013-03-04 16:57:00,
2013-03-04 11:02:00,26.2,23.7,29.93,East,95,3.0,8.0,90,0.00,,,0.09,72.0,meteohub,2013-03-04 17:02:00,
2013-03-04 11:07:00,26.2,23.7,29.93,SE,128,0.0,9.0,90,0.00,,,0.09,62.0,meteohub,2013-03-04 17:07:00,
2013-03-04 11:12:00,26.2,23.7,29.93,WSW,251,0.0,9.0,90,0.00,,,0.09,69.0,meteohub,2013-03-04 17:12:00,
2013-03-04 11:17:00,26.2,23.7,29.93,WSW,257,0.0,5.0,90,0.00,,,0.09,67.0,meteohub,2013-03-04 17:17:00,
2013-03-04 11:22:00,26.4,23.9,29.93,SE,130,0.0,5.0,90,0.00,,,0.09,67.0,meteohub,2013-03-04 17:22:00,
2013-03-04 11:27:00,26.4,23.9,29.94,SSE,165,0.0,5.0,90,0.00,,,0.09,60.0,meteohub,2013-03-04 17:27:00,
2013-03-04 11:32:00,26.4,23.9,29.93,SE,134,0.0,7.0,90,0.00,,,0.09,62.0,meteohub,2013-03-04 17:32:00,
2013-03-04 11:37:00,26.6,24.1,29.93,SW,236,2.0,7.0,90,0.00,,,0.09,70.0,meteohub,2013-03-04 17:37:00,
2013-03-04 11:42:00,26.4,23.9,29.94,ESE,117,3.0,7.0,90,0.00,,,0.09,62.0,meteohub,2013-03-04 17:42:00,
2013-03-04 11:47:00,26.4,23.9,29.94,South,188,1.0,7.0,90,0.00,,,0.09,47.0,meteohub,2013-03-04 17:47:00,
2013-03-04 11:52:00,26.4,24.1,29.94,North,0,4.0,7.0,91,0.00,,,0.09,84.0,meteohub,2013-03-04 17:52:00,
2013-03-04 11:57:00,26.8,24.3,29.94,SW,223,2.0,5.0,90,0.00,,,0.09,62.0,meteohub,2013-03-04 17:57:00,
2013-03-04 12:02:00,26.6,24.1,29.94,ENE,57,0.0,5.0,90,0.00,,,0.09,54.0,meteohub,2013-03-04 18:02:00,
2013-03-04 12:07:00,26.8,24.3,29.94,SW,231,0.0,5.0,90,0.00,,,0.09,54.0,meteohub,2013-03-04 18:07:00,
2013-03-04 12:12:00,26.8,24.4,29.94,SSE,167,1.0,5.0,91,0.00,,,0.09,77.0,meteohub,2013-03-04 18:12:00,
2013-03-04 12:17:00,27.0,24.4,29.94,East,99,0.0,6.0,90,0.00,,,0.09,65.0,meteohub,2013-03-04 18:17:00,
2013-03-04 12:22:00,27.0,24.4,29.94,West,267,1.0,6.0,90,0.00,,,0.09,58.0,meteohub,2013-03-04 18:22:00,
2013-03-04 12:27:00,26.8,24.3,29.94,South,190,1.0,7.0,90,0.00,,,0.09,47.0,meteohub,2013-03-04 18:27:00,
2013-03-04 12:29:00,26.8,24.3,29.94,WSW,245,0.0,7.0,90,0.00,,,0.09,53.0,meteohub,2013-03-04 18:29:00,
2013-03-04 12:30:00,26.8,24.3,29.94,WSW,245,0.0,7.0,90,0.00,,,0.09,54.0,meteohub,2013-03-04 18:30:00,
2013-03-04 12:35:00,26.6,24.3,29.94,South,178,0.0,7.0,91,0.00,,,0.09,56.0,meteohub,2013-03-04 18:35:00,
2013-03-04 12:40:00,26.8,24.4,29.94,ESE,113,0.0,6.0,91,0.00,,,0.09,53.0,meteohub,2013-03-04 18:40:00,
2013-03-04 12:45:00,26.8,24.4,29.94,WSW,257,0.0,6.0,91,0.00,,,0.09,60.0,meteohub,2013-03-04 18:45:00,
2013-03-04 12:50:00,26.8,24.4,29.94,WNW,292,0.0,4.0,91,0.00,,,0.09,58.0,meteohub,2013-03-04 18:50:00,
2013-03-04 12:55:00,27.0,24.6,29.94,North,350,1.0,4.0,91,0.00,,,0.09,53.0,meteohub,2013-03-04 18:55:00,
2013-03-04 13:00:00,27.0,24.6,29.94,North,349,0.0,4.0,91,0.00,,,0.09,44.0,meteohub,2013-03-04 19:00:00,
2013-03-04 13:05:00,27.0,24.6,29.94,ESE,108,0.0,4.0,91,0.00,,,0.09,60.0,meteohub,2013-03-04 19:05:00,
2013-03-04 13:10:00,27.3,25.0,29.94,SSW,195,0.0,5.0,91,0.00,,,0.09,74.0,meteohub,2013-03-04 19:10:00,
2013-03-04 13:15:00,27.5,25.2,29.94,SSE,167,1.0,5.0,91,0.00,,,0.09,84.0,meteohub,2013-03-04 19:15:00,
2013-03-04 13:20:00,27.7,25.3,29.93,SE,138,0.0,5.0,91,0.00,,,0.09,63.0,meteohub,2013-03-04 19:20:00,
2013-03-04 13:25:00,27.7,25.3,29.93,SSW,203,0.0,5.0,91,0.00,,,0.09,81.0,meteohub,2013-03-04 19:25:00,
2013-03-04 13:30:00,27.7,25.3,29.93,WNW,302,0.0,5.0,91,0.00,,,0.09,53.0,meteohub,2013-03-04 19:30:00,
2013-03-04 13:35:00,27.7,25.3,29.93,SW,234,1.0,5.0,91,0.00,,,0.09,63.0,meteohub,2013-03-04 19:35:00,
2013-03-04 13:40:00,27.7,25.3,29.93,WSW,248,2.0,6.0,91,0.00,,,0.09,49.0,meteohub,2013-03-04 19:40:00,
2013-03-04 13:45:00,27.5,25.2,29.93,NNW,331,2.0,6.0,91,0.00,,,0.09,35.0,meteohub,2013-03-04 19:45:00,
2013-03-04 13:50:00,27.3,25.0,29.93,ENE,78,0.0,6.0,91,0.00,,,0.09,40.0,meteohub,2013-03-04 19:50:00,
2013-03-04 13:55:00,27.3,25.3,29.93,NW,310,0.0,7.0,92,0.00,,,0.09,49.0,meteohub,2013-03-04 19:55:00,
2013-03-04 14:00:00,27.3,25.3,29.93,East,92,0.0,7.0,92,0.00,,,0.09,81.0,meteohub,2013-03-04 20:00:00,
2013-03-04 14:05:00,27.7,25.7,29.92,SW,218,2.0,7.0,92,0.00,,,0.09,98.0,meteohub,2013-03-04 20:05:00,
2013-03-04 14:10:00,27.9,25.9,29.92,North,350,3.0,6.0,92,0.00,,,0.09,83.0,meteohub,2013-03-04 20:10:00,
2013-03-04 14:15:00,28.0,25.7,29.93,SE,146,0.0,5.0,91,0.00,,,0.09,67.0,meteohub,2013-03-04 20:15:00,
2013-03-04 14:20:00,27.9,25.5,29.93,West,279,0.0,6.0,91,0.00,,,0.09,74.0,meteohub,2013-03-04 20:20:00,
2013-03-04 14:25:00,28.0,26.1,29.93,NW,313,0.0,6.0,92,0.00,,,0.09,83.0,meteohub,2013-03-04 20:25:00,
2013-03-04 14:30:00,28.0,26.1,29.93,SSW,213,3.0,4.0,92,0.00,,,0.09,83.0,meteohub,2013-03-04 20:30:00,
2013-03-04 14:35:00,28.2,25.9,29.93,East,94,0.0,6.0,91,0.00,,,0.09,76.0,meteohub,2013-03-04 20:35:00,
2013-03-04 14:40:00,28.4,26.1,29.94,South,182,1.0,6.0,91,0.00,,,0.09,79.0,meteohub,2013-03-04 20:40:00,
2013-03-04 14:45:00,28.6,26.2,29.94,WSW,250,0.0,5.0,91,0.01,,,0.10,72.0,meteohub,2013-03-04 20:45:00,
2013-03-04 14:50:00,28.6,26.2,29.94,NW,307,2.0,6.0,91,0.01,,,0.10,76.0,meteohub,2013-03-04 20:50:00,
2013-03-04 14:55:00,28.8,26.2,29.94,SSW,207,1.0,6.0,90,0.01,,,0.10,69.0,meteohub,2013-03-04 20:55:00,
2013-03-04 15:00:00,28.8,26.2,29.94,WSW,248,0.0,6.0,90,0.01,,,0.10,62.0,meteohub,2013-03-04 21:00:00,
2013-03-04 15:05:00,28.6,26.1,29.94,NNE,14,2.0,6.0,90,0.01,,,0.10,54.0,meteohub,2013-03-04 21:05:00,
2013-03-04 15:10:00,28.6,26.1,29.94,WNW,285,1.0,5.0,90,0.01,,,0.10,60.0,meteohub,2013-03-04 21:10:00,
2013-03-04 15:15:00,28.8,26.2,29.94,NE,42,4.0,4.0,90,0.01,,,0.10,74.0,meteohub,2013-03-04 21:15:00,
2013-03-04 15:20:00,28.8,26.2,29.94,SE,127,0.0,6.0,90,0.01,,,0.10,72.0,meteohub,2013-03-04 21:20:00,
2013-03-04 15:25:00,28.9,26.4,29.94,NNE,28,0.0,6.0,90,0.01,,,0.10,60.0,meteohub,2013-03-04 21:25:00,
2013-03-04 15:30:00,28.8,26.2,29.94,West,281,0.0,6.0,90,0.01,,,0.10,58.0,meteohub,2013-03-04 21:30:00,
2013-03-04 15:35:00,28.8,26.2,29.94,NNW,348,0.0,3.0,90,0.01,,,0.10,62.0,meteohub,2013-03-04 21:35:00,
2013-03-04 15:40:00,28.8,26.2,29.94,North,10,0.0,3.0,90,0.00,,,0.10,81.0,meteohub,2013-03-04 21:40:00,
2013-03-04 15:45:00,28.8,26.2,29.94,WNW,299,2.0,4.0,90,0.00,,,0.10,77.0,meteohub,2013-03-04 21:45:00,
2013-03-04 15:50:00,28.8,26.2,29.94,NNE,19,0.0,5.0,90,0.00,,,0.10,67.0,meteohub,2013-03-04 21:50:00,
2013-03-04 15:55:00,28.8,26.2,29.94,ESE,123,0.0,5.0,90,0.00,,,0.10,70.0,meteohub,2013-03-04 21:55:00,
2013-03-04 16:00:00,28.8,26.2,29.95,WNW,288,1.0,4.0,90,0.00,,,0.10,86.0,meteohub,2013-03-04 22:00:00,
2013-03-04 16:05:00,28.9,26.6,29.95,SW,215,0.0,3.0,91,0.00,,,0.10,98.0,meteohub,2013-03-04 22:05:00,
2013-03-04 16:10:00,29.1,26.6,29.94,East,83,0.0,3.0,90,0.00,,,0.10,79.0,meteohub,2013-03-04 22:10:00,
2013-03-04 16:16:00,29.1,26.6,29.94,West,266,0.0,3.0,90,0.00,,,0.10,69.0,meteohub,2013-03-04 22:16:00,
2013-03-04 16:21:00,29.1,26.6,29.94,NNW,341,0.0,3.0,90,0.00,,,0.10,65.0,meteohub,2013-03-04 22:21:00,
2013-03-04 16:26:00,29.1,26.6,29.94,WSW,254,0.0,4.0,90,0.00,,,0.10,58.0,meteohub,2013-03-04 22:26:00,
2013-03-04 16:31:00,28.9,26.4,29.94,SSW,212,0.0,4.0,90,0.00,,,0.10,65.0,meteohub,2013-03-04 22:31:00,
2013-03-04 16:36:00,28.9,26.4,29.94,SSE,156,0.0,4.0,90,0.00,,,0.10,56.0,meteohub,2013-03-04 22:36:00,
2013-03-04 16:41:00,28.9,26.4,29.95,SW,226,0.0,4.0,90,0.00,,,0.10,46.0,meteohub,2013-03-04 22:41:00,
2013-03-04 16:46:00,28.8,26.2,29.95,ENE,58,0.0,4.0,90,0.00,,,0.10,40.0,meteohub,2013-03-04 22:46:00,
2013-03-04 16:51:00,28.8,26.2,29.95,NNW,340,0.0,7.0,90,0.00,,,0.10,33.0,meteohub,2013-03-04 22:51:00,
2013-03-04 16:56:00,28.8,26.4,29.95,WNW,288,0.0,7.0,91,0.00,,,0.10,26.0,meteohub,2013-03-04 22:56:00,
2013-03-04 17:01:00,28.6,26.2,29.95,West,269,4.0,7.0,91,0.00,,,0.10,23.0,meteohub,2013-03-04 23:01:00,
2013-03-04 17:06:00,28.6,26.2,29.95,South,178,0.0,4.0,91,0.00,,,0.10,21.0,meteohub,2013-03-04 23:06:00,
2013-03-04 17:11:00,28.4,26.1,29.96,SE,124,1.0,5.0,91,0.00,,,0.10,18.0,meteohub,2013-03-04 23:11:00,
2013-03-04 17:16:00,28.2,25.9,29.95,WNW,284,0.0,5.0,91,0.00,,,0.10,18.0,meteohub,2013-03-04 23:16:00,
2013-03-04 17:21:00,28.0,25.7,29.95,SSW,192,0.0,3.0,91,0.00,,,0.10,19.0,meteohub,2013-03-04 23:21:00,
2013-03-04 17:26:00,27.9,25.5,29.95,North,9,0.0,3.0,91,0.00,,,0.10,14.0,meteohub,2013-03-04 23:26:00,
2013-03-04 17:31:00,27.9,25.5,29.96,North,355,2.0,3.0,91,0.00,,,0.10,11.0,meteohub,2013-03-04 23:31:00,
2013-03-04 17:36:00,27.9,25.5,29.96,East,94,0.0,3.0,91,0.00,,,0.10,5.0,meteohub,2013-03-04 23:36:00,
2013-03-04 17:41:00,27.7,25.3,29.97,WSW,249,0.0,3.0,91,0.00,,,0.10,0.0,meteohub,2013-03-04 23:41:00,
2013-03-04 17:46:00,27.7,25.7,29.97,ESE,113,0.0,3.0,92,0.00,,,0.10,0.0,meteohub,2013-03-04 23:46:00,
2013-03-04 17:51:00,27.5,25.2,29.97,SSE,148,1.0,6.0,91,0.00,,,0.10,0.0,meteohub,2013-03-04 23:51:00,
2013-03-04 17:56:00,27.5,25.2,29.97,North,355,2.0,6.0,91,0.00,,,0.10,0.0,meteohub,2013-03-04 23:56:00,
2013-03-04 18:01:00,27.5,25.5,29.98,South,179,0.0,4.0,92,0.00,,,0.10,0.0,meteohub,2013-03-05 00:01:00,
2013-03-04 18:06:00,27.3,25.3,29.99,SSW,206,1.0,4.0,92,0.00,,,0.10,0.0,meteohub,2013-03-05 00:06:00,
2013-03-04 18:11:00,27.3,25.3,29.99,SSE,155,0.0,4.0,92,0.00,,,0.10,0.0,meteohub,2013-03-05 00:11:00,
2013-03-04 18:16:00,27.3,25.3,29.99,West,265,0.0,4.0,92,0.00,,,0.10,0.0,meteohub,2013-03-05 00:16:00,
2013-03-04 18:21:00,27.3,25.3,29.99,ESE,121,0.0,5.0,92,0.00,,,0.10,0.0,meteohub,2013-03-05 00:21:00,
2013-03-04 18:26:00,27.3,25.3,29.99,SE,128,0.0,5.0,92,0.00,,,0.10,0.0,meteohub,2013-03-05 00:26:00,
2013-03-04 18:31:00,27.3,25.3,30.00,NW,311,0.0,5.0,92,0.00,,,0.10,0.0,meteohub,2013-03-05 00:31:00,
2013-03-04 18:36:00,27.3,25.3,30.00,NNW,348,0.0,4.0,92,0.00,,,0.10,0.0,meteohub,2013-03-05 00:36:00,
2013-03-04 18:41:00,27.3,25.3,30.00,SSE,155,0.0,4.0,92,0.00,,,0.10,0.0,meteohub,2013-03-05 00:41:00,
2013-03-04 18:46:00,27.3,25.3,30.00,East,85,0.0,4.0,92,0.00,,,0.10,0.0,meteohub,2013-03-05 00:46:00,
2013-03-04 18:51:00,27.3,25.3,30.01,ESE,105,0.0,4.0,92,0.00,,,0.10,0.0,meteohub,2013-03-05 00:51:00,
2013-03-04 18:56:00,27.3,25.3,30.01,East,88,0.0,4.0,92,0.00,,,0.10,0.0,meteohub,2013-03-05 00:56:00,
2013-03-04 19:01:00,27.5,25.5,30.01,ESE,109,1.0,4.0,92,0.00,,,0.10,0.0,meteohub,2013-03-05 01:01:00,
2013-03-04 19:06:00,27.3,25.5,30.01,ESE,119,0.0,4.0,93,0.00,,,0.10,0.0,meteohub,2013-03-05 01:06:00,
2013-03-04 19:11:00,27.5,25.7,30.01,West,275,0.0,5.0,93,0.00,,,0.10,0.0,meteohub,2013-03-05 01:11:00,
2013-03-04 19:16:00,27.5,25.7,30.00,NE,54,0.0,5.0,93,0.00,,,0.10,0.0,meteohub,2013-03-05 01:16:00,
2013-03-04 19:21:00,27.3,25.5,30.00,ESE,123,0.0,3.0,93,0.00,,,0.10,0.0,meteohub,2013-03-05 01:21:00,
2013-03-04 19:27:00,27.3,25.5,30.00,ENE,70,5.0,5.0,93,0.00,,,0.10,0.0,meteohub,2013-03-05 01:27:00,
2013-03-04 19:32:00,27.1,25.3,30.00,West,279,1.0,6.0,93,0.00,,,0.10,0.0,meteohub,2013-03-05 01:32:00,
2013-03-04 19:37:00,27.1,25.3,30.00,SSW,206,0.0,6.0,93,0.00,,,0.10,0.0,meteohub,2013-03-05 01:37:00,
2013-03-04 19:42:00,27.0,25.2,29.99,WSW,247,1.0,6.0,93,0.00,,,0.10,0.0,meteohub,2013-03-05 01:42:00,
2013-03-04 19:47:00,27.0,25.2,29.99,East,80,1.0,5.0,93,0.00,,,0.10,0.0,meteohub,2013-03-05 01:47:00,
2013-03-04 19:52:00,27.0,25.5,30.00,WSW,248,4.0,5.0,94,0.00,,,0.10,0.0,meteohub,2013-03-05 01:52:00,
2013-03-04 19:57:00,27.0,25.5,30.00,WSW,252,0.0,4.0,94,0.00,,,0.10,0.0,meteohub,2013-03-05 01:57:00,
2013-03-04 20:02:00,27.0,25.5,30.00,WSW,247,0.0,4.0,94,0.00,,,0.10,0.0,meteohub,2013-03-05 02:02:00,
2013-03-04 20:07:00,27.0,25.5,30.01,SSW,203,0.0,4.0,94,0.00,,,0.10,0.0,meteohub,2013-03-05 02:07:00,
2013-03-04 20:12:00,27.0,25.5,30.01,WSW,256,1.0,2.0,94,0.00,,,0.10,0.0,meteohub,2013-03-05 02:12:00,
2013-03-04 20:17:00,27.0,25.5,30.01,WSW,256,0.0,2.0,94,0.00,,,0.10,0.0,meteohub,2013-03-05 02:17:00,
2013-03-04 20:22:00,27.0,25.5,30.01,WNW,302,0.0,2.0,94,0.00,,,0.10,0.0,meteohub,2013-03-05 02:22:00,
2013-03-04 20:27:00,27.0,25.5,30.01,WSW,238,0.0,4.0,94,0.00,,,0.10,0.0,meteohub,2013-03-05 02:27:00,
2013-03-04 20:32:00,27.0,25.5,30.01,NNE,32,0.0,4.0,94,0.00,,,0.10,0.0,meteohub,2013-03-05 02:32:00,
2013-03-04 20:37:00,27.0,25.5,30.01,ENE,57,0.0,4.0,94,0.00,,,0.10,0.0,meteohub,2013-03-05 02:37:00,
2013-03-04 20:42:00,27.0,25.5,30.01,SSW,206,0.0,3.0,94,0.00,,,0.10,0.0,meteohub,2013-03-05 02:42:00,
2013-03-04 20:47:00,27.0,25.5,30.01,WNW,286,0.0,3.0,94,0.00,,,0.10,0.0,meteohub,2013-03-05 02:47:00,
2013-03-04 20:52:00,27.0,25.5,30.01,East,98,0.0,3.0,94,0.00,,,0.10,0.0,meteohub,2013-03-05 02:52:00,
2013-03-04 20:57:00,26.8,25.3,30.01,East,96,0.0,3.0,94,0.00,,,0.10,0.0,meteohub,2013-03-05 02:57:00,
2013-03-04 21:02:00,26.8,25.3,30.02,ENE,60,0.0,2.0,94,0.00,,,0.10,0.0,meteohub,2013-03-05 03:02:00,
2013-03-04 21:07:00,26.8,25.3,30.02,East,96,0.0,2.0,94,0.00,,,0.10,0.0,meteohub,2013-03-05 03:07:00,
2013-03-04 21:12:00,26.8,25.3,30.01,East,100,0.0,3.0,94,0.00,,,0.10,0.0,meteohub,2013-03-05 03:12:00,
2013-03-04 21:17:00,26.8,25.3,30.02,ENE,72,0.0,3.0,94,0.00,,,0.10,0.0,meteohub,2013-03-05 03:17:00,
2013-03-04 21:22:00,26.8,25.3,30.02,WNW,286,0.0,3.0,94,0.00,,,0.10,0.0,meteohub,2013-03-05 03:22:00,
2013-03-04 21:27:00,26.8,25.3,30.01,WNW,286,0.0,2.0,94,0.00,,,0.10,0.0,meteohub,2013-03-05 03:27:00,
2013-03-04 21:32:00,26.8,25.3,30.02,SW,227,0.0,2.0,94,0.00,,,0.10,0.0,meteohub,2013-03-05 03:32:00,
2013-03-04 21:37:00,26.8,25.3,30.02,SW,226,0.0,2.0,94,0.00,,,0.10,0.0,meteohub,2013-03-05 03:37:00,
2013-03-04 21:42:00,26.8,25.3,30.02,North,0,0.0,2.0,94,0.00,,,0.10,0.0,meteohub,2013-03-05 03:42:00,
2013-03-04 21:47:00,26.8,25.3,30.01,NE,42,0.0,3.0,94,0.00,,,0.10,0.0,meteohub,2013-03-05 03:47:00,
2013-03-04 21:52:00,26.8,25.3,30.01,ENE,75,0.0,3.0,94,0.00,,,0.10,0.0,meteohub,2013-03-05 03:52:00,
2013-03-04 21:57:00,26.8,25.5,30.00,ENE,64,0.0,3.0,95,0.00,,,0.10,0.0,meteohub,2013-03-05 03:57:00,
2013-03-04 22:02:00,26.8,25.5,30.00,NNE,24,0.0,3.0,95,0.00,,,0.10,0.0,meteohub,2013-03-05 04:02:00,
2013-03-04 22:07:00,26.8,25.3,30.00,NE,39,0.0,3.0,94,0.00,,,0.10,0.0,meteohub,2013-03-05 04:07:00,
2013-03-04 22:12:00,26.6,25.2,30.00,ENE,59,0.0,3.0,94,0.00,,,0.10,0.0,meteohub,2013-03-05 04:12:00,
2013-03-04 22:17:00,26.6,25.3,30.01,ENE,71,0.0,3.0,95,0.00,,,0.10,0.0,meteohub,2013-03-05 04:17:00,
2013-03-04 22:22:00,26.4,25.2,30.00,NW,307,0.0,3.0,95,0.00,,,0.10,0.0,meteohub,2013-03-05 04:22:00,
2013-03-04 22:27:00,26.4,25.2,30.01,ESE,123,1.0,5.0,95,0.00,,,0.10,0.0,meteohub,2013-03-05 04:27:00,
2013-03-04 22:32:00,26.4,25.2,30.01,NE,51,0.0,6.0,95,0.00,,,0.10,0.0,meteohub,2013-03-05 04:32:00,
2013-03-04 22:37:00,26.4,25.2,30.01,SSE,156,0.0,6.0,95,0.00,,,0.10,0.0,meteohub,2013-03-05 04:37:00,
2013-03-04 22:42:00,26.4,25.2,30.01,WSW,242,0.0,6.0,95,0.00,,,0.10,0.0,meteohub,2013-03-05 04:42:00,
2013-03-04 22:47:00,26.4,25.2,30.00,East,96,1.0,3.0,95,0.00,,,0.10,0.0,meteohub,2013-03-05 04:47:00,
2013-03-04 22:52:00,26.4,25.2,30.00,SW,224,1.0,3.0,95,0.00,,,0.10,0.0,meteohub,2013-03-05 04:52:00,
2013-03-04 22:57:00,26.4,25.2,30.00,SW,219,0.0,3.0,95,0.00,,,0.10,0.0,meteohub,2013-03-05 04:57:00,
2013-03-04 23:00:00,26.4,25.2,30.00,NW,317,0.0,3.0,95,0.00,,,0.10,0.0,meteohub,2013-03-05 05:00:00,
2013-03-04 23:05:00,26.4,25.2,30.00,NNW,335,0.0,3.0,95,0.00,,,0.10,0.0,meteohub,2013-03-05 05:05:00,
2013-03-04 23:10:00,26.4,25.2,29.99,East,85,0.0,3.0,95,0.00,,,0.10,0.0,meteohub,2013-03-05 05:10:00,
2013-03-04 23:15:00,26.4,25.2,29.99,ENE,57,0.0,3.0,95,0.00,,,0.10,0.0,meteohub,2013-03-05 05:15:00,
2013-03-04 23:21:00,26.4,25.2,29.99,ESE,123,2.0,3.0,95,0.00,,,0.10,0.0,meteohub,2013-03-05 05:21:00,
2013-03-04 23:25:00,26.4,25.2,29.99,South,182,0.0,4.0,95,0.00,,,0.10,0.0,meteohub,2013-03-05 05:25:00,
2013-03-04 23:31:00,26.4,25.2,29.99,ENE,78,2.0,4.0,95,0.00,,,0.10,0.0,meteohub,2013-03-05 05:31:00,
2013-03-04 23:36:00,26.2,25.0,29.99,ESE,121,0.0,5.0,95,0.00,,,0.10,0.0,meteohub,2013-03-05 05:36:00,
2013-03-04 23:41:00,26.2,25.0,29.99,ENE,77,1.0,5.0,95,0.00,,,0.10,0.0,meteohub,2013-03-05 05:41:00,
2013-03-04 23:46:00,26.2,25.0,29.99,ESE,115,0.0,3.0,95,0.00,,,0.10,0.0,meteohub,2013-03-05 05:46:00,
2013-03-04 23:51:00,26.2,25.0,29.98,North,10,0.0,3.0,95,0.00,,,0.10,0.0,meteohub,2013-03-05 05:51:00,
2013-03-04 23:56:00,26.2,25.0,29.99,ENE,76,1.0,3.0,95,0.00,,,0.10,0.0,meteohub,2013-03-05 05:56:00,